STARLINK-3924 (52570 NORAD) Tracking and Keplerian Element Data

This shows tracking and keplerian element data for the satellite.

Feedback or suggestion? Click here.




ElementValue
Catalog52570
NameSTARLINK-3924
Epoch Orbit130
Epoch Day167.08334491
Epoch Year2022
RAAN128.9856
Inclination53.2165
Eccentricity0.0002611
Argument of Perigee11.5617
Mean Anonmoly60.0579
Mean Motion15.73244157
Decay Rate0.00027024
L11 52570U 22051AP 22167.08334491 .00027024 00000+0 19596-3 0 9996
L22 52570 53.2165 128.9856 0002611 11.5617 60.0579 15.73244157 1303

Live tracking and technical data element details for STARLINK-3924 (NORAD 52570). STARLINK-3924 can be tracked NOW for your location showing map with azimuth and elevation plus other details from your city location.

Track the satellite on the map from your city or location and see movement details for azimuth, elevation, latitude, longitude, range, height, and movement on the map or in text.







IsCatalogInMostPopularTable: catalog: 52570, numindb: 3
Update: records affected: 1



GetName: 52570 STARLINK-3924

Hit Count: updated at: Sat, 25 Jun 2022 05:10:50 GMT